• En España
  • Lista de países
  • Para 7 días
  • Temperatura del agua
  • Mapa Satelital
  • El tiempo en el mapa
  • Informadores
  • user-avatar
    Iniciar sesión

    Tiempo cada hora Canillo

    Hoy, 19 Octubre, Viernes

    Tiempo Temperatura Precipitaciones Viento Presión Humedad
    00:00 +7°C° 0 mm 2 mps 618 mmHg 93%
    01:00 +7°C° 0.1 mm 2 mps 618 mmHg 93%
    02:00 +7°C° 0.1 mm 2 mps 618 mmHg 92%
    03:00 +7°C° 0.1 mm 2 mps 618 mmHg 92%
    04:00 +7°C° 0.1 mm 2 mps 618 mmHg 92%
    05:00 +8°C° 0.1 mm 1 mps 618 mmHg 92%
    06:00 +7°C° 0.1 mm 1 mps 618 mmHg 91%
    07:00 +9°C° 0.1 mm 1 mps 619 mmHg 88%
    08:00 +10°C° 0.1 mm 1 mps 620 mmHg 85%
    09:00 +11°C° 0.1 mm 1 mps 621 mmHg 81%
    10:00 +11°C° 0.4 mm 1 mps 621 mmHg 79%
    11:00 +12°C° 0.4 mm 1 mps 621 mmHg 78%
    12:00 +12°C° 0.4 mm 1 mps 622 mmHg 76%
    13:00 +12°C° 1.8 mm 1 mps 621 mmHg 78%
    14:00 +12°C° 1.8 mm 2 mps 621 mmHg 80%
    15:00 +10°C° 1.8 mm 2 mps 621 mmHg 83%
    16:00 +10°C° 2 mm 1 mps 621 mmHg 85%
    17:00 +10°C° 2 mm 1 mps 620 mmHg 88%
    18:00 +9°C° 2 mm 1 mps 620 mmHg 91%
    19:00 +9°C° 0.9 mm 1 mps 621 mmHg 91%
    20:00 +8°C° 0.9 mm 1 mps 621 mmHg 91%
    21:00 +8°C° 0.9 mm 1 mps 621 mmHg 91%
    22:00 +8°C° 0.4 mm 1 mps 621 mmHg 90%
    23:00 +8°C° 0.4 mm 1 mps 621 mmHg 90%

    Mañana, 20 Octubre, Sábado

    Tiempo Temperatura Precipitaciones Viento Presión Humedad
    00:00 +8°C° 0.4 mm 1 mps 621 mmHg 90%
    01:00 +8°C° 0.1 mm 1 mps 621 mmHg 90%
    02:00 +8°C° 0.1 mm 1 mps 621 mmHg 89%
    03:00 +7°C° 0.1 mm 1 mps 621 mmHg 89%
    04:00 +7°C° 0.1 mm 1 mps 621 mmHg 89%
    05:00 +7°C° 0.1 mm 1 mps 621 mmHg 89%
    06:00 +7°C° 0.1 mm 1 mps 622 mmHg 89%
    07:00 +8°C° 0.2 mm 1 mps 623 mmHg 85%
    08:00 +10°C° 0.2 mm 1 mps 623 mmHg 81%
    09:00 +11°C° 0.2 mm 1 mps 624 mmHg 77%
    10:00 +12°C° 0.5 mm 1 mps 625 mmHg 74%
    11:00 +13°C° 0.5 mm 1 mps 625 mmHg 71%
    12:00 +14°C° 0.5 mm 1 mps 625 mmHg 67%
    13:00 +14°C° 0.9 mm 1 mps 625 mmHg 69%
    14:00 +13°C° 0.9 mm 1 mps 625 mmHg 71%
    15:00 +13°C° 0.9 mm 1 mps 624 mmHg 73%
    16:00 +11°C° 0.7 mm 1 mps 624 mmHg 79%
    17:00 +9°C° 0.7 mm 0 mps 624 mmHg 84%
    18:00 +8°C° 0.7 mm 0 mps 623 mmHg 90%
    19:00 +8°C° 0.2 mm 0 mps 623 mmHg 89%
    20:00 +8°C° 0.2 mm 1 mps 623 mmHg 89%
    21:00 +8°C° 0.2 mm 1 mps 623 mmHg 89%
    22:00 +8°C° 0 mm 1 mps 623 mmHg 88%
    23:00 +7°C° 0 mm 1 mps 623 mmHg 88%

    Pasado mañana, 21 Octubre, Domingo

    Tiempo Temperatura Precipitaciones Viento Presión Humedad
    00:00 +7°C° 0 mm 1 mps 623 mmHg 87%
    01:00 +7°C° 0 mm 1 mps 623 mmHg 86%
    02:00 +7°C° 0 mm 1 mps 623 mmHg 86%
    03:00 +7°C° 0 mm 1 mps 623 mmHg 85%
    04:00 +7°C° 0 mm 1 mps 622 mmHg 85%
    05:00 +6°C° 0 mm 1 mps 622 mmHg 84%
    06:00 +6°C° 0 mm 1 mps 622 mmHg 84%
    07:00 +8°C° 0 mm 1 mps 623 mmHg 78%
    08:00 +9°C° 0 mm 0 mps 624 mmHg 72%
    09:00 +12°C° 0 mm 0 mps 625 mmHg 66%
    10:00 +13°C° 0 mm 0 mps 626 mmHg 62%
    11:00 +14°C° 0 mm 1 mps 626 mmHg 59%
    12:00 +15°C° 0 mm 1 mps 626 mmHg 55%
    13:00 +15°C° 0.1 mm 1 mps 626 mmHg 59%
    14:00 +14°C° 0.1 mm 1 mps 625 mmHg 62%
    15:00 +14°C° 0.1 mm 1 mps 625 mmHg 66%
    16:00 +12°C° 0 mm 1 mps 624 mmHg 72%
    17:00 +11°C° 0 mm 1 mps 624 mmHg 78%
    18:00 +9°C° 0 mm 1 mps 623 mmHg 84%
    19:00 +9°C° 0 mm 1 mps 623 mmHg 85%
    20:00 +8°C° 0 mm 1 mps 623 mmHg 86%
    21:00 +8°C° 0 mm 1 mps 623 mmHg 87%
    22:00 +8°C° 0 mm 1 mps 623 mmHg 87%
    23:00 +7°C° 0 mm 1 mps 623 mmHg 87%

    22 Octubre, Lunes

    Tiempo Temperatura Precipitaciones Viento Presión Humedad
    00:00 +7°C° 0 mm 1 mps 622 mmHg 87%
    01:00 +6°C° 0 mm 2 mps 622 mmHg 86%
    02:00 +6°C° 0 mm 2 mps 622 mmHg 85%
    03:00 +5°C° 0 mm 2 mps 621 mmHg 84%
    04:00 +5°C° 0 mm 2 mps 621 mmHg 82%
    05:00 +5°C° 0 mm 2 mps 621 mmHg 80%
    06:00 +5°C° 0 mm 2 mps 621 mmHg 78%
    07:00 +6°C° 0 mm 2 mps 622 mmHg 72%
    08:00 +8°C° 0 mm 2 mps 623 mmHg 66%
    09:00 +10°C° 0 mm 2 mps 624 mmHg 60%
    10:00 +12°C° 0 mm 2 mps 624 mmHg 55%
    11:00 +12°C° 0 mm 3 mps 625 mmHg 50%
    12:00 +14°C° 0 mm 3 mps 625 mmHg 45%
    13:00 +13°C° 0 mm 3 mps 625 mmHg 47%
    14:00 +13°C° 0 mm 3 mps 624 mmHg 49%
    15:00 +12°C° 0 mm 3 mps 624 mmHg 52%
    16:00 +10°C° 0 mm 3 mps 624 mmHg 61%
    17:00 +8°C° 0 mm 3 mps 623 mmHg 69%
    18:00 +5°C° 0 mm 3 mps 623 mmHg 78%
    19:00 +4°C° 0 mm 3 mps 623 mmHg 76%
    20:00 +4°C° 0 mm 3 mps 623 mmHg 73%
    21:00 +3°C° 0 mm 3 mps 623 mmHg 71%
    22:00 +3°C° 0 mm 3 mps 623 mmHg 70%
    23:00 +2°C° 0 mm 3 mps 623 mmHg 69%

    23 Octubre, Martes

    Tiempo Temperatura Precipitaciones Viento Presión Humedad
    00:00 +2°C° 0 mm 3 mps 623 mmHg 68%
    01:00 +2°C° 0 mm 3 mps 623 mmHg 68%
    02:00 +2°C° 0 mm 3 mps 623 mmHg 68%
    03:00 +1°C° 0 mm 3 mps 623 mmHg 68%
    04:00 +1°C° 0 mm 3 mps 623 mmHg 69%
    05:00 +1°C° 0 mm 3 mps 622 mmHg 70%
    06:00 +1°C° 0 mm 3 mps 622 mmHg 71%
    07:00 +2°C° 0 mm 3 mps 623 mmHg 66%
    08:00 +4°C° 0 mm 3 mps 624 mmHg 61%
    09:00 +7°C° 0 mm 3 mps 625 mmHg 56%
    10:00 +8°C° 0 mm 3 mps 625 mmHg 52%
    11:00 +8°C° 0 mm 4 mps 625 mmHg 48%
    12:00 +10°C° 0 mm 4 mps 625 mmHg 43%
    13:00 +8°C° 0 mm 4 mps 625 mmHg 45%
    14:00 +8°C° 0 mm 4 mps 624 mmHg 47%
    15:00 +8°C° 0 mm 4 mps 624 mmHg 49%
    16:00 +6°C° 0 mm 4 mps 623 mmHg 58%
    17:00 +4°C° 0 mm 3 mps 623 mmHg 67%
    18:00 +2°C° 0 mm 3 mps 622 mmHg 75%
    19:00 +1°C° 0 mm 3 mps 622 mmHg 74%
    20:00 +1°C° 0 mm 3 mps 622 mmHg 73%
    21:00 0°C° 0 mm 3 mps 623 mmHg 72%
    22:00 0°C° 0 mm 3 mps 622 mmHg 70%
    23:00 0°C° 0 mm 3 mps 622 mmHg 68%

    24 Octubre, Miércoles

    Tiempo Temperatura Precipitaciones Viento Presión Humedad
    00:00 0°C° 0 mm 3 mps 622 mmHg 66%
    01:00 0°C° 0 mm 3 mps 622 mmHg 65%
    02:00 0°C° 0 mm 3 mps 623 mmHg 64%
    03:00 0°C° 0 mm 3 mps 623 mmHg 63%
    04:00 0°C° 0 mm 3 mps 623 mmHg 64%
    05:00 0°C° 0 mm 3 mps 623 mmHg 64%
    06:00 0°C° 0 mm 3 mps 623 mmHg 64%
    07:00 +2°C° 0 mm 3 mps 624 mmHg 59%
    08:00 +4°C° 0 mm 3 mps 624 mmHg 55%
    09:00 +7°C° 0 mm 3 mps 625 mmHg 51%
    10:00 +8°C° 0 mm 3 mps 626 mmHg 49%
    11:00 +10°C° 0 mm 3 mps 626 mmHg 47%
    12:00 +11°C° 0 mm 3 mps 626 mmHg 45%
    13:00 +11°C° 0 mm 3 mps 626 mmHg 47%
    14:00 +10°C° 0 mm 3 mps 626 mmHg 49%
    15:00 +10°C° 0 mm 3 mps 625 mmHg 51%
    16:00 +8°C° 0 mm 3 mps 624 mmHg 59%
    17:00 +5°C° 0 mm 3 mps 624 mmHg 66%
    18:00 +3°C° 0 mm 3 mps 623 mmHg 73%
    19:00 +3°C° 0 mm 3 mps 623 mmHg 73%
    20:00 +3°C° 0 mm 3 mps 623 mmHg 73%
    21:00 +3°C° 0 mm 3 mps 623 mmHg 73%
    22:00 +3°C° 0 mm 3 mps 623 mmHg 73%
    23:00 +3°C° 0 mm 3 mps 623 mmHg 73%
    Mostrar más